"Pseudo-MPEC" for P22oG6W

Created 2026 Aug 7 17:35:07 UT using Find_Orb

Click here for an explanation of pseudo-MPECs

 
 Astrometry: 
     P22oG6W*0C2026 07 26.54268123 47 31.590-16 30 26.24   ~7QFZ 21.12wXNEOCPF52
     P22oG6W 0C2026 07 26.56586123 47 34.648-16 30 43.74   ~7QFZ 20.96wXNEOCPF52
     P22oG6W 0C2026 07 26.57735923 47 36.169-16 30 52.30   ~7QFZ 21.01wXNEOCPF52
     P22oG6W 0C2026 07 27.36866323 49 25.875-16 40 55.51   ~7THK 20.80rUNEOCPI41
     P22oG6W 0C2026 07 27.45942923 49 38.039-16 42 05.31   ~7THK 21.06gUNEOCPI41
     P22oG6W 0C2026 07 27.60639623 49 58.261-16 43 57.83   ~7RL5 20.69GVNEOCPF52
     P22oG6W 0C2026 07 27.60720323 49 58.372-16 43 58.47   ~7RL5 20.85GVNEOCPF52
     P22oG6W 0C2026 07 29.41661523 54 12.583-17 08 13.80   ~7THK 20.16iUNEOCPI41
     P22oG6W 3C2026 08 07.49386900 16 45.808-19 33 21.58   ~87DZ 20.03GVNEOCPT14
     P22oG6W 3C2026 08 07.49484000 16 45.955-19 33 22.67   ~87DZ 20.07GVNEOCPT14
     P22oG6W 3C2026 08 07.49581100 16 46.100-19 33 23.68   ~87DZ 20.12GVNEOCPT14
     P22oG6W 0C2026 08 07.52204600 16 50.067-19 33 52.81   ~87EK 21.14wXNEOCPF52
     P22oG6W 0C2026 08 07.53307300 16 51.730-19 34 04.96   ~87EK 21.16wXNEOCPF52
     P22oG6W 0C2026 08 07.54414400 16 53.402-19 34 17.12   ~87EK 21.15wXNEOCPF52
     P22oG6W 0C2026 08 07.55515600 16 55.056-19 34 29.14   ~87EK 21.15wXNEOCPF52

Station data:
(F52) Pan-STARRS 2, Haleakala  (N20.707382 W156.255910)  US/Hawaii.
   Observers J. Herman, T. Lowe, P. Minguez, A. Schultz, I. Smith. Measurers
   K. Chambers, T. de Boer, J. Fairlamb, H. Gao, M. Huber, C.-C. Lin, E.
   Magnier, Y. Ramanjooloo, R. Wainscoat, R. Weryk. 1.8-m Ritchey-Chrétien +
   CCD.
(I41) Palomar Mountain--ZTF  (N33.357336 W116.859780)  US/California.
   Observers B. T. Bolin, Z. T. F. Collaboration. Measurers B. T. Bolin,
   Z.-Y. Lin, F. J. Masci. 1.2-m f/2.4 Schmidt.
(T14) Mauna Kea-UH/Tholen NEO Follow-Up (CFHT)  (N19.825252 W155.468876)
   US/Hawaii.  Observer R. Weryk. 3.6-m Canada-France-Hawaii Telescope.

Orbital elements:  P22oG6W
   Perihelion 2026 Oct 22.506341 +/- 0.0697 TT = 12:09:07.8 (JD 2461336.006341)
Epoch 2026 Aug  7.0 TT = JDT 2461259.5   Earth MOID: 0.2856   Ma: 0.0631
M 342.670974638 +/- 0.13            (J2000 ecliptic)             AutoNEOCP
n   0.226504431 +/- 0.00158         Peri.  279.323398 +/- 0.11
a   2.665333637 +/- 0.0124          Node   113.134937 +/- 0.051
e   0.56243125 +/- 0.00171          Incl.   12.465526 +/- 0.025
P   4.35138                H 19.74  G  0.15   U  8.4
q 1.166266689 +/- 0.000893    Q 4.164400585 +/- 0.0239
From 15 observations 2026 July 26-Aug. 7; mean residual 0".18
Residuals in arcseconds: 
260726 F52  .00   .04-    260727 F52  .08+  .08+    260807 T14  .01-  .02+    
260726 F52  .07-  .10-    260727 F52  .12+  .06+    260807 F52  .04-  .03+    
260726 F52  .04-  .03-    260729 I41  .32-  .41-    260807 F52  .02-  .03+    
260727 I41  .03+  .16-    260807 T14  .00   .03-    260807 F52  .05+  .05+    
260727 I41  .14-  .78+    260807 T14  .01+  .04-    260807 F52  .00   .12+    

Ephemerides (geocentric):
Date (UTC) HH   RA             Dec           delta  r     elong  mag " sig PA
---- --------  ------------   ------------  ------ ------ -----  --- --------
2026 08 07 18  00 17 25.621   -19 37 52.77  .54780 1.4554 135.3 20.5 .033  51
2026 08 07 19  00 17 32.186   -19 38 38.63  .54744 1.4552 135.3 20.5 .038  45
2026 08 07 20  00 17 38.755   -19 39 24.55  .54709 1.4549 135.3 20.5 .044  40
2026 08 07 21  00 17 45.326   -19 40 10.51  .54674 1.4546 135.3 20.5 .050  37
2026 08 07 22  00 17 51.901   -19 40 56.52  .54638 1.4543 135.3 20.5 .057  34
2026 08 07 23  00 17 58.479   -19 41 42.58  .54603 1.4541 135.4 20.5 .063  32
2026 08 08 00  00 18 05.061   -19 42 28.70  .54568 1.4538 135.4 20.5 .070  30
2026 08 08 01  00 18 11.645   -19 43 14.86  .54532 1.4535 135.4 20.5 .077  29
2026 08 08 02  00 18 18.233   -19 44 01.08  .54497 1.4533 135.4 20.5 .084  27
2026 08 08 03  00 18 24.825   -19 44 47.35  .54462 1.4530 135.4 20.5 .091  26
2026 08 08 04  00 18 31.419   -19 45 33.66  .54427 1.4528 135.4 20.5 .098  25
2026 08 08 05  00 18 38.017   -19 46 20.03  .54392 1.4525 135.4 20.5 .105  25
2026 08 08 06  00 18 44.619   -19 47 06.45  .54357 1.4522 135.4 20.5 .112  24
2026 08 08 07  00 18 51.223   -19 47 52.92  .54322 1.4520 135.4 20.5 .120  23
2026 08 08 08  00 18 57.831   -19 48 39.44  .54286 1.4517 135.4 20.5 .127  23
2026 08 08 09  00 19 04.443   -19 49 26.01  .54251 1.4514 135.5 20.5 .134  22
2026 08 08 10  00 19 11.057   -19 50 12.63  .54216 1.4512 135.5 20.5 .142  22
2026 08 08 11  00 19 17.675   -19 50 59.30  .54181 1.4509 135.5 20.5 .149  21
2026 08 08 12  00 19 24.296   -19 51 46.02  .54147 1.4506 135.5 20.5 .157  21
2026 08 08 13  00 19 30.921   -19 52 32.79  .54112 1.4504 135.5 20.5 .165  20
2026 08 08 14  00 19 37.549   -19 53 19.62  .54077 1.4501 135.5 20.5 .172  20
2026 08 08 15  00 19 44.180   -19 54 06.49  .54042 1.4498 135.5 20.5 .180  20
2026 08 08 16  00 19 50.815   -19 54 53.41  .54007 1.4496 135.5 20.5 .188  19
2026 08 08 17  00 19 57.453   -19 55 40.39  .53972 1.4493 135.5 20.5 .196  19
2026 08 08 18  00 20 04.094   -19 56 27.41  .53937 1.4490 135.5 20.5 .204  19
2026 08 08 19  00 20 10.739   -19 57 14.48  .53903 1.4488 135.6 20.5 .212  19
2026 08 08 20  00 20 17.387   -19 58 01.61  .53868 1.4485 135.6 20.5 .220  18
2026 08 08 21  00 20 24.038   -19 58 48.78  .53833 1.4482 135.6 20.5 .228  18
2026 08 08 22  00 20 30.693   -19 59 36.01  .53799 1.4480 135.6 20.5 .236  18
2026 08 08 23  00 20 37.351   -20 00 23.28  .53764 1.4477 135.6 20.5 .245  18
2026 08 09 00  00 20 44.013   -20 01 10.61  .53729 1.4474 135.6 20.5 .253  18
2026 08 09 01  00 20 50.678   -20 01 57.99  .53695 1.4472 135.6 20.5 .261  17
2026 08 09 02  00 20 57.346   -20 02 45.41  .53660 1.4469 135.6 20.5 .270  17
2026 08 09 03  00 21 04.018   -20 03 32.89  .53626 1.4466 135.6 20.5 .278  17
2026 08 09 04  00 21 10.693   -20 04 20.42  .53591 1.4464 135.6 20.5 .287  17
2026 08 09 05  00 21 17.371   -20 05 07.99  .53557 1.4461 135.6 20.5 .295  17
2026 08 09 06  00 21 24.053   -20 05 55.62  .53522 1.4458 135.7 20.5 .304  17
2026 08 09 07  00 21 30.738   -20 06 43.29  .53488 1.4456 135.7 20.5 .313  16
2026 08 09 08  00 21 37.427   -20 07 31.02  .53454 1.4453 135.7 20.5 .322  16
2026 08 09 09  00 21 44.119   -20 08 18.80  .53419 1.4451 135.7 20.5 .330  16
2026 08 09 10  00 21 50.814   -20 09 06.62  .53385 1.4448 135.7 20.5 .339  16
2026 08 09 11  00 21 57.513   -20 09 54.50  .53351 1.4445 135.7 20.5 .348  16
2026 08 09 12  00 22 04.215   -20 10 42.43  .53316 1.4443 135.7 20.5 .357  16
2026 08 09 13  00 22 10.921   -20 11 30.40  .53282 1.4440 135.7 20.5 .366  16
2026 08 09 14  00 22 17.630   -20 12 18.43  .53248 1.4437 135.7 20.5 .375  15
2026 08 09 15  00 22 24.342   -20 13 06.51  .53214 1.4435 135.7 20.4 .385  15
2026 08 09 16  00 22 31.058   -20 13 54.63  .53180 1.4432 135.7 20.4 .394  15
2026 08 09 17  00 22 37.777   -20 14 42.81  .53145 1.4429 135.8 20.4 .403  15